Location: Unspecified
(0.0000°N, 0.0000°E)
Time: 13:03:07
(UTC+00:00)

Explorer 11/Cluster Stage 4 - Pass Details

Date: 16 September 2019
Orbit: 467 x 1259 km, 28.8° (Epoch: 13 October)

Event Time Altitude Azimuth Distance (km) Brightness Sun altitude
Rises 18:09:21 0° 225° (SW) 4,154 11.0 -3.6°
Reaches altitude 10° 18:12:41 10° 217° (SW) 3,124 10.2 -4.4°
Maximum altitude 18:19:40 35° 154° (SSE) 1,666 8.0 -6.2°
Drops below altitude 10° 18:25:38 10° 90° (E) 2,667 8.6 -7.7°
Enters shadow 18:25:54 - 88° (E) 2,746 8.7 -7.7°
